カタログに戻る

SL-8 R/B

運用中PO
NORAD 7737·ROCKET BODY·🇷🇺 Russia

打ち上げ Apr 11, 1975 から Plesetsk Cosmodrome

Loading…

次のパス (今後24時間)

TLE

最新Source: Space-Track

元期: Sep 14, 2026, 13:00 UTC

1  7737U 75028B   26257.54233382  .00000122  00000-0  10094-3 0  9990
2  7737  82.9896 110.6556 0018101   1.5688  16.1958 13.80827123589402

AllMySatでSL-8 R/Bをリアルタイム追跡

Download on the App Store